Home   Weather   Mariehamn   Past weeks

Flag for Åland Islands Past Weather in Mariehamn, Åland Islands — Yesterday and Last 2 Weeks

32 °F

Ice fog.

Feels Like: 32 °F
Forecast: 43 / 49 °F
Wind: No wind

Location: Mariehamn / Aland Island

Current Time: Oct 26, 2016 at 8:56:26 AM

Latest Report: Oct 26, 2016 at 8:20 AM

Visibility: 2 mi

Pressure: 30.18 "Hg

Humidity: 100%

Dew Point: 32 °F

Location of MariehamnLocation

Past Weather in Mariehamn — Graph


Mariehamn Temperature Yesterday

Maximum temperature yesterday: 43 °F (at 1:50 AM)
Minimum temperature yesterday: 36 °F (at 6:50 PM)
Average temperature yesterday: 39 °F

High & Low Weather Summary for the Past Weeks

High48 °F (Oct 11, 2:20 PM)100% (Oct 15, 6:50 AM)30.63 "Hg (Oct 15, 6:50 AM)
Low34 °F (Oct 26, 2:50 AM)61% (Oct 21, 7:20 PM)30.15 "Hg (Oct 26, 2:20 AM)
Average43 °F78%30.43 "Hg
* Reported Oct 11 7:20 AM — Oct 26 7:20 AM, Mariehamn, Weather by CustomWeather, © 2016

Note: Actual official high and low records may vary slightly from our data, if they occured in-between our weather recording intervals... More about our weather records


Mariehamn Weather History for the Previous 24 Hours

Scroll right to see more
Time TempWeatherWind HumidityBarometerVisibility
7:20 AM
Wed, Oct 26
34 °FPassing clouds.No wind100%30.18 "HgN/A
6:50 AM34 °FPassing clouds.No wind100%30.18 "HgN/A
6:20 AM34 °FFog.No wind100%30.18 "Hg3 mi
5:50 AM34 °FFog.No wind100%30.18 "Hg1 mi
5:20 AM34 °FPassing clouds.No wind100%30.15 "Hg6 mi
4:50 AM34 °FOvercast.No wind100%30.15 "Hg6 mi
4:20 AM34 °FPassing clouds.1 mph100%30.15 "Hg5 mi
3:50 AM34 °FPassing clouds.1 mph100%30.15 "Hg4 mi
3:20 AM34 °FPassing clouds.No wind100%30.15 "HgN/A
2:50 AM34 °FPassing clouds.2 mph100%30.15 "HgN/A
2:20 AM36 °FOvercast.1 mph93%30.15 "HgN/A
1:50 AM36 °FLight rain. Overcast.7 mph93%30.18 "Hg5 mi
1:20 AM36 °FOvercast.2 mph93%30.18 "HgN/A
12:50 AM36 °FOvercast.1 mph93%30.18 "HgN/A
12:20 AM36 °FOvercast.3 mph93%30.18 "HgN/A
11:50 PM
Tue, Oct 25
36 °FOvercast.1 mph93%30.18 "HgN/A
11:20 PM36 °FClear.No wind93%30.18 "Hg10 mi
10:50 PM36 °FClear.2 mph93%30.18 "Hg10 mi
10:20 PM36 °FOvercast.2 mph93%30.18 "HgN/A
9:50 PM36 °FOvercast.3 mph100%30.18 "HgN/A
9:20 PM36 °FMostly cloudy.3 mph100%30.18 "HgN/A
8:50 PM37 °FMostly cloudy.1 mph93%30.18 "HgN/A
8:20 PM36 °FMostly cloudy.2 mph100%30.18 "HgN/A
7:50 PM36 °FLight rain. Overcast.2 mph100%30.18 "HgN/A
7:20 PM36 °FLight rain. Low clouds.1 mph100%30.18 "HgN/A
6:50 PM36 °FLight rain. Low clouds.3 mph100%30.18 "HgN/A
6:20 PM37 °FLight rain. Mostly cloudy.3 mph93%30.18 "HgN/A
5:50 PM37 °FLight rain. Mostly cloudy.2 mph93%30.18 "Hg5 mi
5:20 PM37 °FRain. Low clouds.5 mph87%30.18 "Hg3 mi
4:50 PM37 °FRain. Low clouds.5 mph93%30.18 "HgN/A
4:20 PM37 °FSprinkles. Overcast.6 mph93%30.18 "HgN/A
3:50 PM39 °FLight rain. Overcast.5 mph87%30.18 "HgN/A
3:20 PM39 °FLight rain. Overcast.5 mph87%30.18 "HgN/A
2:20 PM39 °FSprinkles. Mostly cloudy.5 mph93%30.18 "HgN/A
1:50 PM39 °FSprinkles. Mostly cloudy.5 mph87%30.21 "HgN/A
1:20 PM39 °FSprinkles. Mostly cloudy.5 mph87%30.21 "HgN/A
12:50 PM39 °FSprinkles. Mostly cloudy.6 mph93%30.21 "HgN/A
12:20 PM39 °FLight rain. Mostly cloudy.5 mph93%30.21 "HgN/A
11:50 AM39 °FLight rain. More clouds than sun.5 mph87%30.24 "HgN/A
11:20 AM39 °FLight rain. More clouds than sun.5 mph93%30.24 "HgN/A
10:50 AM39 °FSprinkles. More clouds than sun.2 mph93%30.24 "HgN/A
10:20 AM39 °FLight rain. Overcast.5 mph87%30.24 "HgN/A
9:50 AM39 °FLight rain. Overcast.3 mph93%30.24 "HgN/A
9:20 AM39 °FLight rain. Overcast.3 mph87%30.24 "HgN/A
8:50 AM39 °FLight rain. Overcast.3 mph87%30.27 "HgN/A
8:20 AM39 °FLight rain. Overcast.5 mph93%30.27 "HgN/A
Weather by CustomWeather, © 2016

See weather overviewHow to use our weather pages